Regional Weather Roundup
Issued by NWS

Home | Current Version | Previous Version | Text Only | Print | Product List | Glossary Off
Versions: 1 2 3 4 5 6 7 8 9 10 11 12 13 14 15 16 17 18 19 20 21 22 23 24 25 26 27 28 29 30 31 32 33 34 35 36 37 38 39 40 41 42 43 44 45 46 47 48 49 50

876
ASUS44 KMEG 050410
RWRTN
TENNESSEE HOURLY STATE WEATHER ROUNDUP
NATIONAL WEATHER SERVICE MEMPHIS TN
1100 PM CDT WED MAY 04 2016

TNZ002-004-019-021-049-052-054-088>092-050500-
WEST TENNESSEE

CITY           SKY/WX    TMP DP  RH WIND       PRES   REMARKS
MEMPHIS INTL   PTCLDY    64  45  49 N8        29.88R
NWS MEMPHIS      N/A     62 N/A N/A MISG        N/A
JACKSON        CLEAR     55  43  63 N5        29.88R
DYERSBURG      PTCLDY    57  43  58 NE6       29.89R
UNION CITY     PTCLDY    54  45  71 N7        29.88F
LEXINGTON      CLEAR     54  39  58 N5        29.86R
$$

TNZ008-025-027-028-033-062-065-066-050500-
NORTH MIDDLE TENNESSEE

CITY           SKY/WX    TMP DP  RH WIND       PRES   REMARKS
NASHVILLE      PTCLDY    54  41  61 N7        29.85R
CLARKSVILLE    PTCLDY    51  42  71 N8        29.87R
SMYRNA         MOCLDY    56  43  61 N13       29.86R
COOKEVILLE     PTCLDY    48  48 100 NW3       29.80S
CROSSVILLE     PTCLDY    47  44  90 W6        29.80S
$$

TNZ061-075-076-078-094-096-097-050500-
SOUTH MIDDLE TENNESSEE

CITY           SKY/WX    TMP DP  RH WIND       PRES   REMARKS
FAYETTEVILLE   PTCLDY    54  48  82 N7        29.84R
TULLAHOMA      CLEAR     50  46  87 N9        29.84R
WINCHESTER     CLEAR     48  48 100 VRB3      29.83S
MCMINNVILLE    CLOUDY    52  46  82 NW7       29.82S
COLUMBIA       CLEAR     52  52 100 N3        29.85R
SHELBYVILLE    CLEAR     52  46  82 NW7       29.85S
$$

TNZ017-018-042-046-047-050500-
NORTHEAST TENNESSEE

CITY           SKY/WX    TMP DP  RH WIND       PRES   REMARKS
TRI CITIES     LGT RAIN  48  44  86 SW9       29.74R
$$

TNZ012-013-036-069-073-074-050500-
CENTRAL EAST TENNESSEE

CITY           SKY/WX    TMP DP  RH WIND       PRES   REMARKS
KNOXVILLE      PTCLDY    49  47  93 SW5       29.77F
OAK RIDGE      MOCLDY    49  47  93 CALM      29.79S
GATLINBURG     MOCLDY    48  46  93 CALM      29.76F
MORRISTOWN     CLOUDY    46  46 100 S5        29.76S
$$

TNZ083-085-099-050500-
SOUTHEAST TENNESSEE

CITY           SKY/WX    TMP DP  RH WIND       PRES   REMARKS
CHATTANOOGA    CLEAR     52  50  93 CALM      29.80S
$$

SKY/WX REPORTED AS FAIR MEANS FEW OR NO CLOUDS BELOW
12 THOUSAND FEET.





USA.gov is the U.S. government's official web portal to all federal, state and local government web resources and services.